Location: Newark
(35.9031°N, 139.7175°E)
Time: 13:30:22
(UTC+00:00)

Transit 2A - Pass Details

Date: 03 June 2020
Orbit: 592 x 967 km, 66.7° (Epoch: 06 July)

Event Time Altitude Azimuth Distance (km) Brightness Sun altitude
Rises 14:06:08 0° 309° (NW) 3,632 10.1 -31.2°
Reaches altitude 10° 14:10:24 10° 282° (WNW) 2,703 9.0 -31.3°
Enters shadow 14:12:31 12° 262° (W) 2,529 8.6 -31.3°
